• In Russia
  • List of Countries
  • For 7 days
  • Water Temperature
  • Satellite Maps
  • Weather Map
  • Weather Widgets
  • user-avatar
    Login

    Hourly Weather Belfast

    Today, 22 June, Friday

    Time Temperature Precipitation Wind Pressure Humidity
    00:00 +7°C° 0 mm 5 mps 773 mmHg 92%
    01:00 +6°C° 0 mm 5 mps 773 mmHg 92%
    02:00 +6°C° 0 mm 5 mps 773 mmHg 93%
    03:00 +6°C° 0 mm 5 mps 773 mmHg 93%
    04:00 +7°C° 0 mm 5 mps 773 mmHg 91%
    05:00 +8°C° 0 mm 4 mps 773 mmHg 89%
    06:00 +8°C° 0 mm 4 mps 773 mmHg 88%
    07:00 +10°C° 0 mm 4 mps 773 mmHg 83%
    08:00 +12°C° 0 mm 4 mps 773 mmHg 78%
    09:00 +13°C° 0 mm 4 mps 773 mmHg 74%
    10:00 +14°C° 0 mm 4 mps 773 mmHg 71%
    11:00 +15°C° 0 mm 4 mps 773 mmHg 68%
    12:00 +15°C° 0 mm 4 mps 773 mmHg 65%
    13:00 +17°C° 0 mm 4 mps 773 mmHg 65%
    14:00 +17°C° 0 mm 4 mps 773 mmHg 64%
    15:00 +17°C° 0 mm 4 mps 772 mmHg 64%
    16:00 +17°C° 0 mm 4 mps 772 mmHg 67%
    17:00 +15°C° 0 mm 4 mps 772 mmHg 69%
    18:00 +15°C° 0 mm 4 mps 772 mmHg 72%
    19:00 +13°C° 0 mm 3 mps 772 mmHg 78%
    20:00 +12°C° 0 mm 3 mps 772 mmHg 84%
    21:00 +10°C° 0 mm 3 mps 772 mmHg 89%
    22:00 +10°C° 0 mm 2 mps 772 mmHg 91%
    23:00 +9°C° 0 mm 2 mps 772 mmHg 92%

    Tomorrow, 23 June, Saturday

    Time Temperature Precipitation Wind Pressure Humidity
    00:00 +8°C° 0 mm 2 mps 772 mmHg 93%
    01:00 +8°C° 0 mm 2 mps 772 mmHg 94%
    02:00 +8°C° 0 mm 2 mps 771 mmHg 94%
    03:00 +8°C° 0 mm 2 mps 771 mmHg 94%
    04:00 +8°C° 0 mm 2 mps 771 mmHg 93%
    05:00 +9°C° 0 mm 2 mps 771 mmHg 91%
    06:00 +10°C° 0 mm 2 mps 771 mmHg 90%
    07:00 +12°C° 0 mm 2 mps 771 mmHg 83%
    08:00 +14°C° 0 mm 2 mps 771 mmHg 76%
    09:00 +15°C° 0 mm 2 mps 771 mmHg 70%
    10:00 +16°C° 0 mm 2 mps 771 mmHg 67%
    11:00 +17°C° 0 mm 2 mps 770 mmHg 64%
    12:00 +18°C° 0 mm 2 mps 770 mmHg 61%
    13:00 +18°C° 0 mm 2 mps 770 mmHg 61%
    14:00 +19°C° 0 mm 2 mps 770 mmHg 62%
    15:00 +19°C° 0 mm 2 mps 769 mmHg 62%
    16:00 +19°C° 0 mm 2 mps 769 mmHg 66%
    17:00 +18°C° 0 mm 2 mps 769 mmHg 69%
    18:00 +18°C° 0 mm 2 mps 769 mmHg 73%
    19:00 +16°C° 0 mm 2 mps 769 mmHg 79%
    20:00 +14°C° 0 mm 2 mps 769 mmHg 84%
    21:00 +12°C° 0 mm 2 mps 769 mmHg 90%
    22:00 +12°C° 0 mm 1 mps 769 mmHg 90%
    23:00 +11°C° 0 mm 1 mps 769 mmHg 90%

    Day after tomorrow, 24 June, Sunday

    Time Temperature Precipitation Wind Pressure Humidity
    00:00 +10°C° 0 mm 1 mps 769 mmHg 91%
    01:00 +10°C° 0 mm 1 mps 769 mmHg 91%
    02:00 +10°C° 0 mm 1 mps 768 mmHg 91%
    03:00 +10°C° 0 mm 1 mps 768 mmHg 91%
    04:00 +11°C° 0 mm 1 mps 768 mmHg 90%
    05:00 +12°C° 0 mm 1 mps 768 mmHg 89%
    06:00 +13°C° 0 mm 1 mps 768 mmHg 88%
    07:00 +14°C° 0 mm 1 mps 768 mmHg 83%
    08:00 +16°C° 0 mm 1 mps 768 mmHg 78%
    09:00 +19°C° 0 mm 1 mps 768 mmHg 73%
    10:00 +19°C° 0 mm 2 mps 768 mmHg 70%
    11:00 +20°C° 0 mm 2 mps 768 mmHg 67%
    12:00 +21°C° 0 mm 2 mps 768 mmHg 63%
    13:00 +21°C° 0 mm 2 mps 768 mmHg 63%
    14:00 +23°C° 0 mm 2 mps 768 mmHg 63%
    15:00 +22°C° 0 mm 3 mps 767 mmHg 63%
    16:00 +22°C° 0 mm 3 mps 767 mmHg 67%
    17:00 +21°C° 0 mm 3 mps 767 mmHg 71%
    18:00 +21°C° 0 mm 3 mps 767 mmHg 75%
    19:00 +19°C° 0 mm 3 mps 767 mmHg 80%
    20:00 +18°C° 0 mm 3 mps 767 mmHg 85%
    21:00 +16°C° 0 mm 3 mps 767 mmHg 90%
    22:00 +14°C° 0 mm 3 mps 767 mmHg 90%
    23:00 +15°C° 0 mm 2 mps 767 mmHg 91%

    25 June, Monday

    Time Temperature Precipitation Wind Pressure Humidity
    00:00 +14°C° 0 mm 2 mps 767 mmHg 91%
    01:00 +14°C° 0 mm 2 mps 767 mmHg 91%
    02:00 +14°C° 0 mm 2 mps 767 mmHg 92%
    03:00 +14°C° 0 mm 2 mps 767 mmHg 93%
    04:00 +15°C° 0 mm 2 mps 767 mmHg 92%
    05:00 +15°C° 0 mm 1 mps 767 mmHg 92%
    06:00 +16°C° 0 mm 1 mps 767 mmHg 91%
    07:00 +19°C° 0 mm 1 mps 767 mmHg 86%
    08:00 +20°C° 0 mm 1 mps 768 mmHg 82%
    09:00 +22°C° 0 mm 1 mps 768 mmHg 78%
    10:00 +22°C° 0 mm 1 mps 768 mmHg 76%
    11:00 +23°C° 0 mm 1 mps 768 mmHg 73%
    12:00 +24°C° 0 mm 2 mps 768 mmHg 71%
    13:00 +24°C° 0 mm 2 mps 768 mmHg 71%
    14:00 +24°C° 0 mm 2 mps 768 mmHg 72%
    15:00 +24°C° 0 mm 2 mps 768 mmHg 73%
    16:00 +24°C° 0 mm 2 mps 768 mmHg 75%
    17:00 +23°C° 0 mm 2 mps 768 mmHg 78%
    18:00 +23°C° 0 mm 2 mps 768 mmHg 80%
    19:00 +20°C° 0 mm 2 mps 768 mmHg 83%
    20:00 +19°C° 0 mm 2 mps 768 mmHg 87%
    21:00 +17°C° 0 mm 2 mps 768 mmHg 90%
    22:00 +16°C° 0 mm 1 mps 768 mmHg 88%
    23:00 +16°C° 0 mm 1 mps 768 mmHg 87%

    26 June, Tuesday

    Time Temperature Precipitation Wind Pressure Humidity
    00:00 +15°C° 0 mm 1 mps 768 mmHg 85%
    01:00 +15°C° 0 mm 1 mps 768 mmHg 83%
    02:00 +14°C° 0 mm 1 mps 768 mmHg 82%
    03:00 +14°C° 0 mm 1 mps 767 mmHg 80%
    04:00 +15°C° 0 mm 1 mps 767 mmHg 80%
    05:00 +15°C° 0 mm 1 mps 767 mmHg 79%
    06:00 +16°C° 0 mm 1 mps 767 mmHg 79%
    07:00 +18°C° 0 mm 1 mps 767 mmHg 75%
    08:00 +19°C° 0 mm 1 mps 768 mmHg 72%
    09:00 +19°C° 0 mm 2 mps 768 mmHg 68%
    10:00 +20°C° 0 mm 2 mps 767 mmHg 66%
    11:00 +21°C° 0 mm 2 mps 767 mmHg 64%
    12:00 +23°C° 0 mm 2 mps 767 mmHg 63%
    13:00 +24°C° 0 mm 2 mps 767 mmHg 64%
    14:00 +24°C° 0 mm 2 mps 767 mmHg 66%
    15:00 +24°C° 0 mm 2 mps 767 mmHg 67%
    16:00 +24°C° 0 mm 2 mps 767 mmHg 70%
    17:00 +24°C° 0 mm 2 mps 767 mmHg 73%
    18:00 +23°C° 0 mm 2 mps 767 mmHg 76%
    19:00 +21°C° 0 mm 2 mps 767 mmHg 79%
    20:00 +19°C° 0 mm 2 mps 767 mmHg 82%
    21:00 +18°C° 0 mm 2 mps 767 mmHg 85%
    22:00 +17°C° 0 mm 2 mps 767 mmHg 86%
    23:00 +16°C° 0 mm 2 mps 767 mmHg 86%

    27 June, Wednesday

    Time Temperature Precipitation Wind Pressure Humidity
    00:00 +16°C° 0 mm 2 mps 767 mmHg 86%
    01:00 +16°C° 0 mm 2 mps 767 mmHg 88%
    02:00 +16°C° 0 mm 2 mps 767 mmHg 90%
    03:00 +16°C° 0 mm 3 mps 767 mmHg 92%
    04:00 +16°C° 0 mm 3 mps 767 mmHg 91%
    05:00 +17°C° 0 mm 3 mps 767 mmHg 90%
    06:00 +17°C° 0 mm 3 mps 767 mmHg 90%
    07:00 +18°C° 0 mm 3 mps 767 mmHg 85%
    08:00 +19°C° 0 mm 3 mps 767 mmHg 81%
    09:00 +21°C° 0 mm 4 mps 767 mmHg 76%
    10:00 +21°C° 0 mm 4 mps 767 mmHg 72%
    11:00 +21°C° 0 mm 4 mps 767 mmHg 68%
    12:00 +22°C° 0 mm 4 mps 767 mmHg 64%
    13:00 +22°C° 0 mm 4 mps 766 mmHg 63%
    14:00 +22°C° 0 mm 4 mps 766 mmHg 61%
    15:00 +22°C° 0 mm 4 mps 766 mmHg 59%
    16:00 +21°C° 0 mm 4 mps 766 mmHg 62%
    17:00 +21°C° 0 mm 4 mps 765 mmHg 65%
    18:00 +21°C° 0 mm 4 mps 765 mmHg 68%
    19:00 +19°C° 0 mm 3 mps 765 mmHg 72%
    20:00 +18°C° 0 mm 3 mps 765 mmHg 75%
    21:00 +16°C° 0 mm 3 mps 766 mmHg 79%
    22:00 +16°C° 0 mm 3 mps 766 mmHg 80%
    23:00 +14°C° 0 mm 3 mps 766 mmHg 82%
    Show more